Regional Weather Roundup
Issued by NWS Newport/Morehead, NC

Current Version | Previous Version | Text Only | Print | Product List | Glossary Off
Versions: 1 2 3 4 5 6 7 8 9 10 11 12 13 14 15 16 17 18 19 20 21 22 23 24 25 26 27 28 29 30 31 32 33 34 35 36 37 38 39 40 41 42 43 44 45 46 47 48 49 50
000 ASUS42 KMHX 311813 RWRMHX WEATHER ROUNDUP FOR EASTERN NORTH CAROLINA NATIONAL WEATHER SERVICE NEWPORT/MOREHEAD CITY NC 200 PM EDT FRI JUL 31 2015 NOTE: "FAIR" INDICATES FEW OR NO CLOUDS BELOW 12,000 FEET WITH NO SIGNIFICANT WEATHER AND/OR OBSTRUCTIONS TO VISIBILITY NCZ015>017-031-032-045>047-102-103-311900- NORTH COAST CITY SKY/WX TMP DP RH WIND PRES REMARKS EDENTON N/A 88 69 54 N8 29.91F ELIZABETH CITY SUNNY 87 65 47 NE14 29.91F KITTY HAWK MOCLDY 86 73 65 N10 29.89F MANTEO PTSUNNY 85 74 71 N13 29.91S $$ NCZ045>047-081-094-103-104-311900- CENTRAL COAST CITY SKY/WX TMP DP RH WIND PRES REMARKS FRISCO MOSUNNY 87 76 69 N9 29.88F SWANQUARTER N/A 86 N/A N/A VRB7G13 29.85S $$ NCZ095-097-098-100-101-311900- SOUTHERN COAST CITY SKY/WX TMP DP RH WIND PRES REMARKS BEAUFORT PTSUNNY 89 79 72 NW10 29.88F HX 104 CEDAR ISLAND N/A 86 N/A N/A NW10 29.94S JACKSONVILLE PTSUNNY 89 74 60 N7 29.89F PINEY ISLAND PTCLDY N/A N/A N/A MISG 29.89F WILMINGTON PTSUNNY 90 76 63 N9 29.90F HX 101 $$ NCZ011>013-027>030-043-044-078>080-089-090>093-098-311900- COASTAL PLAIN CITY SKY/WX TMP DP RH WIND PRES REMARKS AHOSKIE SUNNY 85 69 56 N5 29.93F CLINTON MOSUNNY 91 72 55 NW5 29.93F ELIZABETHTOWN MOSUNNY 90 69 49 CALM 29.92F GOLDSBORO SUNNY 91 69 49 NE9 29.90F GREENVILLE MOSUNNY 90 72 55 NE9 29.93F HAVELOCK PTSUNNY 91 76 61 N12 29.90F HX 103 KENANSVILLE MOSUNNY N/A N/A N/A N7 29.93F KINSTON MOSUNNY 90 72 55 NE6 29.92F NEW BERN MOSUNNY 89 74 60 N7 29.91F RICHLANDS PTSUNNY 90 72 55 NW7 29.91F ROCKY MOUNT SUNNY 93 64 38 VRB7 29.93F WASHINGTON SUNNY 87 73 62 E5 29.91F WHITEVILLE MOSUNNY 90 73 58 E3 29.91F $$ AMZ130-135-150-152-154-156-158-170-250-252-270-ANZ085-086-088-633-658-670-311900- MARINE OBSERVATIONS STATION/POSITION TIME TEMP WIND PRES WAVE SWELL AIR SEA DIR/SP/G HT/PER HT/PER (UTC) (F) (DEG/KT/KT) (MB) (FT/S) (FT/S) CHESAPEAKE LIGHT 1800 81 30/ 11/ 13 1013.6 64 E VA BEACH 1750 81 82 20/ 16/ 17 1011.8 3/ 9 3/ 9 DUCK 1700 75 67 340/ 11/ 11 1012.1 2 E DUCK 1711 79 N/A 3/ 6 OREGON INLET 1700 82 83 360/ 12/ 17 1012.5 13E OREGON INLT 1800 82 N/A 4/ 8 2/11 HATTERAS CG 1700 83 82 10/ 7/ 10 1012.3 DIAMOND BUOY 1750 82 86 10/ 10/ 12 1011.9 4/ 9 3/ 9 CAPE LOOKOUT 1800 87 280/ 7/ 9 1011.6 BEAUFORT LAB 1700 87 83 360/ 5/ 8 1011.8 30 SE NEW RVR IN NOT AVBL 27 SE WRIGHTSVLE 1700 80 84 290/ 4/ 6 N/A 5 SE WRIGHTSVLE 1708 84 84 30/ 2/ 4 1012.9 225 S CAPE HAT 1750 81 81 250/ 17/ 21 1015.4 7/ 8 41 SE CHARLESTON 1750 81 84 210/ 12/ 14 1013.8 2/ 8 2/ 8 $$

USA.gov is the U.S. government's official web portal to all federal, state and local government web resources and services.